Location: Caltech
(34.1382°N, 118.1253°W)
Time: 14:02:41
(UTC-08:00)

NOSS 3-2 (A) - Visible Passes

Search period start: 10 February 2016 00:00
Search period end: 20 February 2016 00:00
Orbit: 908 x 1300 km, 63.4° (Epoch: 28 January)

Date Brightness Start Highest point End Pass type
(mag) Time Alt. Az. Time Alt. Az. Time Alt. Az.
15 Feb 6.1 06:05:05 10° N 06:08:12 13° NE 06:11:25 10° ENE visible
18 Feb 6.1 05:39:04 10° N 05:43:25 16° NE 05:47:54 10° ENE visible
19 Feb 6.4 04:55:54 10° NNE 04:57:12 10° NNE 04:58:32 10° NE visible
